Overview Statistics Trail Chart Weather Telemetry Raw packets
 

This is the latest recevied weather packets stored in our database for station/object KH6DH-13. If no packets are shown the sender has not sent any weather packets the latest 10 day(s).

<< 50 51 52 53 54 55 56 >>
Time Temp. Humidity Pressure Rain* Wind** Luminosity Snow
1787900643 26.11° C - - 0 mm 1.34 m/s, 6° - -
1787900042 26.11° C - - 0 mm 3.13 m/s, 42° - -
1787899441 26.67° C - - 0 mm 0.89 m/s, 46° - -
1787898840 26.11° C - - 0 mm 2.24 m/s, 125° - -
1787898239 26.11° C - - 0 mm 1.79 m/s, 150° - -
1787897638 26.11° C - - 0 mm 0.45 m/s, 66° - -
1787897035 26.67° C - - 0 mm 0.89 m/s, 38° - -
1787896433 26.67° C - - 0 mm 0.45 m/s, 283° - -
1787895837 26.67° C - - 0 mm 1.34 m/s, 17° - -
1787895230 26.67° C - - 0 mm 0 m/s - -
1787894629 26.67° C - - 0 mm 1.34 m/s, 215° - -
1787894028 26.67° C - - 0 mm 1.34 m/s, 7° - -
1787893427 27.22° C - - 0 mm 0 m/s - -
1787892826 27.22° C - - 0 mm 0.89 m/s, 10° - -
1787892225 27.78° C - - 0 mm 1.34 m/s, 35° - -
1787891624 28.33° C - - 0 mm 2.24 m/s, 35° - -
1787891023 28.33° C - - 0 mm 0.89 m/s, 266° - -
1787890422 28.33° C - - 0 mm 0.89 m/s, 86° - -
1787889821 28.89° C - - 0 mm 0.45 m/s, 267° - -
1787889218 29.44° C - - 0 mm 1.79 m/s, 53° - -
1787888615 29.44° C - - 0 mm 2.24 m/s, 141° - -
1787888013 30° C - - 0 mm 1.79 m/s, 96° - -
1787887412 30.56° C - - 0 mm 2.24 m/s, 110° - -
1787886811 30.56° C - - 0 mm 2.24 m/s, 11° - -
1787886210 30° C - - 0 mm 0.45 m/s, 166° - -

* Rain latest hour (hover to see other rain measurements)
** Current wind speed in m/s (hover to see current wind gust speed)